Location: Elko Observing site
(32.3606°N, 83.7235°W)
Time: 16:57:24
(UTC-04:00)

ISS - Visible Passes

Search period start: 17 October 2019 00:00
Search period end: 27 October 2019 00:00
Orbit: 411 x 421 km, 51.6° (Epoch: 17 October)

Date Brightness Start Highest point End Pass type
(mag) Time Alt. Az. Time Alt. Az. Time Alt. Az.
20 Oct -0.1 07:00:57 10° SE 07:01:29 10° SE 07:02:00 10° ESE visible
22 Oct -2.1 06:57:40 10° SSW 07:00:46 35° SE 07:03:52 10° ENE visible
23 Oct -1.0 06:09:56 10° S 06:12:19 18° SE 06:14:42 10° E visible
24 Oct -3.7 06:56:56 10° SW 07:00:14 59° NW 07:03:34 10° NE visible
25 Oct -3.6 06:11:24 62° SSE 06:11:41 66° SE 06:15:01 10° NE visible
26 Oct -0.5 05:25:38 14° ENE 05:25:38 14° ENE 05:26:13 10° ENE visible
26 Oct -2.2 06:58:34 16° WNW 06:59:56 20° NW 07:02:32 10° NNE visible
